TimePDT,TemperatureF,Dew PointF,Humidity,Sea Level PressureIn,VisibilityMPH,Wind Direction,Wind SpeedMPH,Gust SpeedMPH,PrecipitationIn,Events,Conditions,WindDirDegrees,DateUTC
12:53 AM,48.9,42.1,77,29.78,10.0,Calm,Calm,-,N/A,,Mostly Cloudy,0,2013-09-25 07:53:00
1:53 AM,51.1,43.0,74,29.78,10.0,Calm,Calm,-,N/A,,Clear,0,2013-09-25 08:53:00
2:53 AM,50.0,43.0,77,29.78,10.0,SSW,6.9,-,N/A,,Clear,200,2013-09-25 09:53:00
3:53 AM,48.9,43.0,80,29.78,10.0,Calm,Calm,-,N/A,,Clear,0,2013-09-25 10:53:00
4:53 AM,50.0,44.1,80,29.78,10.0,SSW,4.6,-,N/A,,Clear,200,2013-09-25 11:53:00
5:53 AM,46.9,43.0,86,29.78,10.0,Calm,Calm,-,N/A,,Clear,0,2013-09-25 12:53:00
6:53 AM,43.0,42.1,97,29.81,10.0,Calm,Calm,-,N/A,,Clear,0,2013-09-25 13:53:00
7:53 AM,46.0,44.1,93,29.81,10.0,NW,3.5,-,N/A,,Mostly Cloudy,320,2013-09-25 14:53:00
8:53 AM,48.9,46.0,90,29.83,10.0,NNW,3.5,-,N/A,,Mostly Cloudy,330,2013-09-25 15:53:00
9:53 AM,51.1,46.0,83,29.83,10.0,Calm,Calm,-,N/A,,Partly Cloudy,0,2013-09-25 16:53:00
10:53 AM,55.0,46.0,72,29.83,10.0,Calm,Calm,-,N/A,,Clear,0,2013-09-25 17:53:00
11:53 AM,57.9,44.1,60,29.83,10.0,Variable,3.5,-,N/A,,Clear,0,2013-09-25 18:53:00
12:53 PM,62.1,45.0,53,29.82,10.0,NW,3.5,-,N/A,,Partly Cloudy,310,2013-09-25 19:53:00
1:53 PM,64.9,44.1,47,29.81,10.0,Variable,6.9,-,N/A,,Partly Cloudy,0,2013-09-25 20:53:00
2:53 PM,68.0,39.0,35,29.81,10.0,NNW,5.8,-,N/A,,Clear,330,2013-09-25 21:53:00
3:53 PM,69.1,35.1,29,29.80,10.0,NNW,5.8,-,N/A,,Clear,340,2013-09-25 22:53:00
4:53 PM,69.1,35.1,29,29.80,10.0,NW,3.5,-,N/A,,Clear,320,2013-09-25 23:53:00
5:53 PM,68.0,33.1,27,29.80,10.0,WSW,3.5,-,N/A,,Clear,240,2013-09-26 00:53:00
6:53 PM,64.0,36.0,35,29.80,10.0,SW,5.8,-,N/A,,Mostly Cloudy,220,2013-09-26 01:53:00
7:53 PM,59.0,42.1,53,29.82,10.0,NW,5.8,-,N/A,,Overcast,320,2013-09-26 02:53:00
8:53 PM,57.9,42.1,56,29.84,10.0,NNW,10.4,-,N/A,,Overcast,330,2013-09-26 03:53:00
9:16 PM,55.4,46.4,72,29.84,10.0,East,10.4,19.6,0.00,Rain,Light Rain,90,2013-09-26 04:16:00
9:53 PM,53.1,46.9,80,29.88,10.0,Variable,5.8,-,0.00,,Overcast,0,2013-09-26 04:53:00
10:53 PM,53.1,45.0,74,29.87,10.0,Calm,Calm,-,N/A,,Clear,0,2013-09-26 05:53:00
11:53 PM,48.9,45.0,86,29.89,10.0,NW,11.5,-,N/A,,Clear,310,2013-09-26 06:53:00